Home   Weather   Alice Springs   Past weeks

Flag for Australia Past Weather in Alice Springs, Northern Territory, Australia — Yesterday and Last 2 Weeks

Now
70 °F

Sunny.


Feels Like: 70 °F
Forecast: 49 / 66 °F
Wind: 16 mph from Southeast

Location: Alice Springs Aerodrome

Current Time: Apr 26, 2017 at 12:16:38 pm

Latest Report: Apr 26, 2017 at 11:30 am


Visibility: 10 mi

Pressure: 30.21 "Hg (28.24 "Hg at 581m altitude)

Humidity: 31%

Dew Point: 37 °F

Location of Alice SpringsLocation

Past Weather in Alice Springs — Graph

°F

Alice Springs Temperature Yesterday

Maximum temperature yesterday: 82 °F (at 3:00 pm)
Minimum temperature yesterday: 66 °F (at 4:30 am)
Average temperature yesterday: 73 °F

High & Low Weather Summary for the Past Weeks

 TemperatureHumidityPressure
High93 °F (Apr 18, 3:00 pm)88% (Apr 22, 7:00 am)30.24 "Hg (Apr 22, 7:00 am)
Low43 °F (Apr 12, 5:00 am)8% (Apr 13, 3:30 pm)29.92 "Hg (Apr 24, 3:30 pm)
Average73 °F35%30.07 "Hg
* Reported Apr 11 11:00 am — Apr 26 11:00 am, Alice Springs, Weather by CustomWeather, © 2017

Note: Actual official high and low records may vary slightly from our data, if they occured in-between our weather recording intervals... More about our weather records

Advertising

Alice Springs Weather History for the Previous 24 Hours

Scroll right to see more
 ConditionsComfort  
Time TempWeatherWind HumidityBarometerVisibility
11:00 am
Wed, Apr 26
68 °FSunny.17 mph33%30.21 "Hg10 mi
10:30 am66 °FSunny.16 mph37%30.21 "Hg10 mi
10:00 am68 °FSunny.18 mph35%30.21 "Hg10 mi
9:30 am64 °FSunny.17 mph43%30.24 "Hg10 mi
9:00 am64 °FSunny.16 mph43%30.21 "Hg10 mi
8:30 am63 °FSunny.15 mph52%30.21 "HgN/A
8:00 am63 °FSunny.15 mph52%30.21 "HgN/A
7:30 am61 °FPartly sunny.10 mph55%30.21 "HgN/A
7:00 am59 °FPassing clouds.9 mph68%30.21 "HgN/A
6:30 am59 °FClear.7 mph68%30.18 "HgN/A
6:00 am61 °FPassing clouds.8 mph63%30.18 "HgN/A
5:30 am61 °FClear.9 mph63%30.18 "HgN/A
5:00 am61 °FClear.8 mph63%30.18 "HgN/A
4:30 am63 °FClear.8 mph59%30.15 "HgN/A
4:00 am63 °FClear.9 mph59%30.15 "HgN/A
3:30 am64 °FClear.9 mph56%30.15 "HgN/A
3:00 am64 °FClear.8 mph56%30.15 "HgN/A
2:30 am64 °FClear.9 mph56%30.15 "HgN/A
2:00 am66 °FPassing clouds.15 mph52%30.15 "HgN/A
1:30 am68 °FPassing clouds.10 mph53%30.15 "HgN/A
1:00 am70 °FOvercast.9 mph50%30.15 "HgN/A
12:30 am70 °FOvercast.8 mph50%30.15 "HgN/A
12:00 am70 °FPassing clouds.6 mph53%30.15 "HgN/A
11:30 pm
Tue, Apr 25
68 °FPassing clouds.7 mph56%30.15 "HgN/A
11:00 pm70 °FClear.10 mph53%30.12 "HgN/A
10:30 pm72 °FClear.10 mph53%30.12 "HgN/A
10:00 pm72 °FClear.10 mph53%30.12 "HgN/A
9:30 pm72 °FClear.10 mph53%30.12 "HgN/A
9:00 pm73 °FClear.10 mph50%30.09 "HgN/A
8:30 pm73 °FClear.9 mph50%30.09 "HgN/A
8:00 pm73 °FClear.10 mph50%30.09 "HgN/A
7:30 pm75 °FClear.10 mph47%30.07 "HgN/A
7:00 pm75 °FPassing clouds.13 mph50%30.07 "HgN/A
6:30 pm77 °FScattered clouds.8 mph47%30.04 "HgN/A
6:00 pm79 °FScattered clouds.10 mph45%30.04 "HgN/A
5:30 pm79 °FSunny.8 mph42%30.04 "HgN/A
4:30 pm81 °FSunny.12 mph42%30.01 "HgN/A
4:00 pm81 °FSunny.10 mph42%30.01 "HgN/A
3:30 pm81 °FSunny.12 mph42%30.01 "HgN/A
3:00 pm82 °FScattered clouds.9 mph40%29.98 "HgN/A
2:30 pm81 °FSunny.9 mph45%30.01 "HgN/A
2:00 pm81 °FSunny.10 mph45%30.01 "HgN/A
1:30 pm81 °FSunny.10 mph45%30.01 "HgN/A
1:00 pm79 °FSunny.12 mph48%30.04 "HgN/A
12:00 pm77 °FPartly sunny.10 mph54%30.07 "HgN/A
Weather by CustomWeather, © 2017

See weather overviewHow to use our weather pages